Tracking 21076 objects as of 10-Aug-2020
HD Live streaming from Space Station
objects crossing your sky now
Track the most recent launched group of Starlink satellites

O3B FM16

Track O3B FM16 now!
10-day predictions
O3B FM16 is classified as:


NORAD ID: 43232
Int'l Code: 2018-024B
Perigee: 8,068.7 km
Apogee: 8,077.4 km
Inclination: 0.0 °
Period: 287.9 minutes
Semi major axis: 14444 km
RCS: Unknown
Launch date: March 9, 2018
Source: O3b Networks (O3B)
Launch site: FRENCH GUIANA (FRGUI)
aabbcc
Your satellite tracking list
Your tracking list is empty




NASA's NSSDC Master Catalog

Two Line Element Set (TLE):
1 43232U 18024B   20222.71583477 -.00000024 +00000-0 +00000-0 0  9996
2 43232 000.0398 359.9196 0003007 139.7591 220.3421 05.00115400044247
Source of the keplerian elements: AFSPC